Location: Meanaryar
(48.4161°N, 4.7315°W)
Time: 01:34:06
(UTC+00:00)

Cosmos 2151 Rocket - Pass Details

Date: 18 September 2020
Orbit: 617 x 642 km, 82.5° (Epoch: 31 October)

Event Time Altitude Azimuth Distance (km) Brightness Sun altitude
Rises 20:21:44 0° 193° (SSW) 2,901 6.9 -19.6°
Reaches altitude 10° 20:23:57 10° 195° (SSW) 2,003 6.1 -19.9°
Maximum altitude 20:28:23 73° 280° (W) 668 3.8 -20.6°
Drops below altitude 10° 20:32:54 10° 6° (N) 2,035 6.5 -21.2°
Sets 20:35:10 0° 9° (N) 2,952 7.3 -21.6°
